SID,Date,Time,pH,Iron,Mn,Color,Turbidity,Analyst
46738,01/01/2006,"910       ",6.04,0.54,0.400,48,3.62,"JF                                                "
46739,01/02/2006,"940       ",6.01,0.53,0.300,46,3.48,"TCF                                               "
46740,01/03/2006,"845       ",6.35,0.49,0.300,30,3.57,"DMF                                               "
46741,01/04/2006,"935       ",5.60,0.45,0.100,52,3.32,"RP                                                "
46742,01/05/2006,"830       ",5.94,0.37,0.200,54,3.35,"RP                                                "
46743,01/06/2006,"835       ",5.90,0.58,0.500,52,3.76,"DMF                                               "
46744,01/07/2006,"833       ",6.02,0.46,0.200,47,2.97,"TL                                                "
46745,01/08/2006,"857       ",5.97,0.51,0.300,48,3.25,"TL                                                "
46746,01/09/2006,"905       ",6.02,0.54,0.200,46,3.54,"RP                                                "
46747,01/10/2006,"940       ",5.98,0.48,0.100,48,3.36,"RP                                                "
46748,01/11/2006,"843       ",5.96,0.60,0.300,47,3.50,"ACA                                               "
46749,01/12/2006,"858       ",5.96,0.56,0.200,52,3.40,"RP                                                "
46750,01/13/2006,"805       ",5.94,0.55,0.200,50,3.53,"DMF                                               "
46751,01/14/2006,"918       ",5.95,0.47,0.100,49,3.25,"TL                                                "
46752,01/15/2006,"1000      ",5.77,0.49,0.100,51,3.41,"SJV                                               "
46753,01/16/2006,"920       ",5.68,0.45,0.100,53,3.32,"DMF                                               "
46754,01/17/2006,"950       ",5.92,0.50,0.200,52,3.64,"DMF                                               "
46755,01/18/2006,"918       ",5.94,0.57,0.100,51,3.48,"RP                                                "
46756,01/19/2006,"920       ",6.15,0.55,0.100,49,3.43,"RP                                                "
46757,01/20/2006,"831       ",6.01,0.52,0.200,48,3.51,"TL                                                "
46758,01/21/2006,"857       ",6.00,0.46,0.100,46,3.24,"TL                                                "
46759,01/22/2006,"811       ",5.99,0.47,0.100,43,3.26,"TL                                                "
46760,01/23/2006,"802       ",5.79,0.62,0.200,47,3.90,"ACA                                               "
46761,01/24/2006,"935       ",6.05,0.51,0.100,48,3.11,"RP                                                "
46762,01/25/2006,"1000      ",5.95,0.50,0.100,51,3.20,"RP                                                "
46763,01/26/2006,"1015      ",5.99,0.48,0.100,58,3.41,"RP                                                "
46764,01/27/2006,"937       ",5.99,0.48,0.100,50,3.30,"TL                                                "
46765,01/28/2006,"940       ",5.87,0.48,0.100,50,2.97,"TL                                                "
46766,01/29/2006,"945       ",6.15,0.50,0.200,49,3.05,"TL                                                "
46767,01/30/2006,"950       ",5.68,0.57,0.200,40,3.48,"RP                                                "
46768,01/31/2006,"1240      ",6.00,0.51,0.200,47,3.31,"JF                                                "
46769,02/01/2006,"930       ",5.98,0.53,0.400,39,3.54,"RP                                                "
46770,02/02/2006,"930       ",5.98,0.52,0.200,46,4.05,"RP                                                "
46771,02/03/2006,"720       ", ,0.50,0.200,44,3.00,"TL                                                "
46772,02/04/2006,"1038      ",5.85,0.43,0.100,39,2.47,"TL                                                "
46773,02/05/2006,"1034      ",5.97,0.45,0.100,41,2.65,"TL                                                "
46774,02/06/2006,"945       ",6.04,0.45,0.000,38,2.74,"RP                                                "
46775,02/07/2006,"845       ",6.03,0.50,0.100,48,3.18,"RP                                                "
46776,02/08/2006,"915       ",6.03,0.44,0.100,43,3.10,"RP                                                "
46777,02/09/2006,"830       ",6.12,0.47,0.100,42,3.16,"RP                                                "
46778,02/10/2006,"900       ",6.07,0.47,0.100,44,3.36,"TL                                                "
46779,02/11/2006,"914       ",6.00,0.54,0.100,49,3.25,"TL                                                "
46780,02/12/2006,"916       ",6.02,0.49,0.200,46,3.47,"TL                                                "
46781,02/13/2006,"813       ",5.91,0.56,0.300,44,3.21,"ACA                                               "
46782,02/14/2006,"815       ",5.99,0.46,0.200,43,3.27,"DMF                                               "
46783,02/15/2006,"830       ",5.97,0.50,0.200,48,3.44,"DMF                                               "
46784,02/16/2006,"910       ",5.56,0.48,0.100,43,3.08,"RP                                                "
46785,02/17/2006,"709       ",6.03,0.48,0.200,40,3.17,"TL                                                "
46786,02/18/2006,"915       ",5.88,0.47,0.100,44,3.05,"TL                                                "
46787,02/19/2006,"935       ",5.98,0.49,0.100,46,2.91,"TL                                                "
46788,02/20/2006,"935       ",5.85,0.47,0.100,42,2.97,"TL                                                "
46789,02/21/2006,"815       ",5.85,0.52,0.100,42,3.57,"DMF                                               "
46790,02/22/2006,"935       ",5.83,0.54,0.100,46,3.22,"RP                                                "
46791,02/23/2006,"850       ",5.77,0.47,0.100,42,3.20,"RP                                                "
46792,02/24/2006,"904       ",5.79,0.45,0.100,47,2.99,"TL                                                "
46793,02/25/2006,"908       ",5.95,0.47,0.100,45,3.21,"TL                                                "
46794,02/26/2006,"910       ",6.01,0.50,0.200,42,3.10,"TL                                                "
46795,02/27/2006,"920       ",6.06,0.51,0.100,39,3.23,"RP                                                "
46796,02/28/2006,"910       ",5.99,0.53,0.100,31,2.91,"RP                                                "
46797,03/01/2006,"910       ",6.05,0.47,0.100,49,2.93,"RP                                                "
46798,03/02/2006,"915       ",5.94,0.46,0.200,43,2.90,"RP                                                "
46799,03/03/2006,"724       ",6.02,0.49,0.100,44,3.42,"TL                                                "
46800,03/04/2006,"1113      ",5.81,0.51,0.200,42,3.09,"TL                                                "
46801,03/05/2006,"1025      ",5.90,0.49,0.100,40,2.66,"TL                                                "
46802,03/06/2006,"935       ",5.99,0.43,0.100,39,2.91,"RP                                                "
46803,03/07/2006,"930       ",5.99,0.48,0.100,41,2.93,"RP                                                "
46804,03/08/2006,"920       ",6.01,0.45,0.100,37,2.83,"RP                                                "
46805,03/09/2006,"910       ",6.02,0.46,0.000,35,2.92,"RP                                                "
46806,03/10/2006,"923       ",5.82,0.47,0.100,38,2.89,"TL                                                "
46807,03/11/2006,"916       ",5.91,0.50,0.200,40,3.01,"TL                                                "
46808,03/12/2006,"1018      ",5.89,0.50,0.200,38,3.00,"TL                                                "
46809,03/13/2006,"950       ",6.03,0.52,0.100,36,3.18,"RP                                                "
46810,03/14/2006,"930       ",5.85,0.51,0.100,37,2.75,"RP                                                "
46811,03/15/2006,"955       ",5.96,0.48,0.100,38,2.66,"RP                                                "
46812,03/16/2006,"952       ",5.81,0.46,0.100,47,3.05,"TL                                                "
46813,03/17/2006,"850       ",5.86,0.44,0.200,30,2.69,"SV                                                "
46814,03/18/2006,"931       ",5.75,0.52,0.200,45,3.07,"TL                                                "
46815,03/19/2006,"1326      ",5.73,0.54,0.400,44,3.03,"ACA                                               "
46816,03/20/2006,"915       ",5.73,0.52,0.200,54,2.88,"RP                                                "
46817,03/21/2006,"925       ",5.75,0.46,0.100,38,2.95,"RP                                                "
46818,03/22/2006,"905       ",5.78,0.43,0.200,39,2.43,"RP                                                "
46819,03/23/2006,"905       ",5.63,0.51,0.200,38,3.21,"RP                                                "
46820,03/24/2006,"1015      ",5.94,0.50,0.200,36,3.16,"TL                                                "
46821,03/25/2006,"945       ",5.65,0.47,0.200,43,2.93,"TL                                                "
46822,03/26/2006,"920       ",5.71,0.52,0.200,45,3.01,"TL                                                "
46823,03/27/2006,"915       ",5.75,0.62,0.100,39,3.33,"RP                                                "
46824,03/28/2006,"715       ",6.01,0.53,0.100,34,2.92,"RP                                                "
46825,03/29/2006,"730       ",5.99,0.49,0.300,36,2.59,"TF                                                "
46826,03/30/2006,"855       ",6.02,0.52,0.100,35,2.81,"RP                                                "
46827,03/31/2006,"917       ",5.96,0.45,0.200,30,2.08,"TL                                                "
46828,04/01/2006,"757       ",5.92,0.41,0.100,35,2.62,"TL                                                "
46829,04/02/2006,"1005      ",5.99,0.43,0.200,40,2.79,"TL                                                "
46830,04/03/2006,"910       ",5.69,0.44,0.100,28,2.16,"RP                                                "
46831,04/04/2006,"930       ",6.02,0.43,0.100,32,2.81,"RP                                                "
46832,04/05/2006,"900       ",5.99,0.41,0.300,31,1.83,"TCF                                               "
46833,04/06/2006,"925       ",5.99,0.39,0.100,28,1.95,"RP                                                "
46834,04/07/2006,"854       ",5.97,0.43,0.100,32,2.13,"TL                                                "
46835,04/08/2006,"1032      ",5.93,0.45,0.200,30,2.10,"TL                                                "
46836,04/09/2006,"923       ",5.92,0.42,0.200,30,2.07,"TL                                                "
46837,04/10/2006,"955       ",6.12,0.42,0.200,36,2.01,"RP                                                "
46838,04/11/2006,"924       ",6.31,0.39,0.300,31,1.87,"DMF                                               "
46839,04/12/2006,"905       ",60.80,0.40,0.200,31,1.83,"RP                                                "
46840,04/13/2006,"915       ",6.03,0.00,0.200,37,2.14,"RP                                                "
46841,04/14/2006,"1011      ",5.96,0.36,0.200,23,1.75,"TL                                                "
46842,04/15/2006,"825       ",5.90,0.40,0.200,25,2.07,"TL                                                "
46843,04/16/2006,"925       ",5.96,0.39,0.200,29,2.00,"TCF                                               "
46844,04/17/2006,"740       ",6.04,0.43,0.100,22,2.54,"TL                                                "
46845,04/18/2006,"745       ",6.00,0.40,0.200,25,2.18,"DMF                                               "
46846,04/19/2006,"955       ",5.94,0.48,0.300,30,1.94,"TCF                                               "
46847,04/20/2006,"937       ",6.07,0.42,0.200,14,2.14,"TL                                                "
46848,04/21/2006,"1132      ",5.97,0.46,0.300,25,2.50,"TL                                                "
46849,04/22/2006,"700       ",6.01,0.37,0.200,17,2.16,"TL                                                "
46850,04/23/2006,"940       ",6.18,0.42,0.300,27,2.31,"TL                                                "
46851,04/24/2006,"920       ",6.05,0.46,0.300,24,1.90,"TCF                                               "
46852,04/25/2006,"1000      ",6.03,0.36,0.200,28,1.44,"RP                                                "
46853,04/26/2006,"715       ",6.11,0.38,0.200,26,1.84,"RP                                                "
46854,04/27/2006,"915       ",6.07,0.42,0.200,23,2.22,"RP                                                "
46855,04/28/2006,"945       ",5.97,0.42,0.000,29,2.40,"TL                                                "
46856,04/29/2006,"941       ",5.90,0.45,0.200,30,2.52,"TL                                                "
46857,04/30/2006,"920       ",5.91,0.49,0.200,32,2.60,"TL                                                "
46858,05/01/2006,"915       ",6.07,0.50,0.200,54,3.01,"RP                                                "
46859,05/02/2006,"930       ",6.00,0.47,0.200,52,3.09,"RP                                                "
46860,05/03/2006,"1000      ",5.99,0.61,0.100,27,3.06,"RP                                                "
46861,05/04/2006,"915       ",5.96,0.54,0.900,48,2.64,"RP                                                "
46862,05/05/2006,"709       ",5.81,0.50,0.300,34,2.77,"TL                                                "
46863,05/06/2006,"845       ",5.83,0.49,0.100,34,2.50,"TL                                                "
46864,05/07/2006,"1030      ",5.81,0.45,0.300,23,2.85,"SBK                                               "
46865,05/08/2006,"935       ",6.01,0.52,0.200,31,2.94,"RP                                                "
46866,05/09/2006,"935       ",5.97,0.48,0.200,40,2.60,"RP                                                "
46867,05/10/2006,"950       ",6.08,0.49,0.100,38,2.52,"RP                                                "
46868,05/11/2006,"1247      ",5.99,0.62,0.200,34,3.05,"ACA                                               "
46869,05/12/2006,"812       ",5.94,0.52,0.200,37,2.97,"TL                                                "
46870,05/13/2006,"927       ",5.92,0.55,0.200,39,2.80,"TL                                                "
46871,05/14/2006,"1000      ",5.90,0.60,0.200,41,2.67,"TL                                                "
46872,05/15/2006,"1130      ",6.02,0.49,0.200,42,2.56,"RP                                                "
46873,05/16/2006,"1010      ",6.01,0.51,0.200,40,2.46,"RP                                                "
46874,05/17/2006,"915       ",6.02,0.50,0.300,42,2.84,"RP                                                "
46875,05/18/2006,"825       ",5.93,0.50,0.500,40,2.55,"ACA                                               "
46876,05/19/2006,"856       ",5.94,0.47,0.100,41,2.65,"TL                                                "
46877,05/20/2006,"1015      ",5.87,0.46,0.200,40,2.46,"TL                                                "
46878,05/21/2006,"955       ",5.88,0.49,0.200,47,2.60,"TL                                                "
46879,05/22/2006,"825       ",5.99,0.43,0.200,49,2.98,"RH/SV                                             "
46880,05/23/2006,"850       ",6.10,0.33,0.300,45,2.54,"AC/DC                                             "
46881,05/24/2006,"820       ",6.28,0.41,0.200,45,2.65,"SV                                                "
46882,05/25/2006,"925       ",6.13,0.40,0.200,43,2.86,"RP                                                "
46883,05/26/2006,"930       ",6.11,0.44,0.200,48,2.92,"RH/SV                                             "
46884,05/27/2006,"845       ",5.95,0.49,0.300,47,2.80,"TL                                                "
46885,05/28/2006,"935       ",5.93,0.47,0.200,50,2.87,"TL                                                "
46886,05/29/2006,"818       ",5.95,0.49,0.200,47,2.96,"TL                                                "
46887,05/30/2006,"900       ",6.13,0.48,0.300,47,3.11,"RH/SV                                             "
46888,05/31/2006,"850       ",5.98,0.45,0.300,50,3.08,"RH/SV                                             "
46889,06/01/2006,"845       ",5.97,0.48,0.300,48,2.89,"SV                                                "
46890,06/02/2006,"955       ",6.11,0.52,0.200,43,3.01,"RH                                                "
46891,06/03/2006,"1052      ",6.02,0.54,0.300,48,3.15,"TL                                                "
46892,06/04/2006,"906       ",5.93,0.54,0.300,45,2.94,"TL                                                "
46893,06/05/2006,"845       ",6.23,0.42,0.300,39,2.71,"RH/SV                                             "
46894,06/06/2006,"1015      ",6.08,0.40,0.400,54,2.23,"RP                                                "
46895,06/07/2006,"755       ",6.14,0.39,0.400,46,2.18,"RH/SV                                             "
46896,06/08/2006,"1130      ",6.08,0.50,0.100,46,2.25,"RP                                                "
46897,06/09/2006,"915       ",5.97,0.37,0.200,39,2.02,"TL                                                "
46898,06/10/2006,"940       ",6.00,0.32,0.200,37,1.69,"TL                                                "
46899,06/11/2006,"840       ",5.93,0.33,0.200,37,2.15,"TL                                                "
46900,06/12/2006,"920       ",6.04,0.34,0.200,43,1.87,"RP                                                "
46901,06/13/2006,"930       ",6.17,0.36,0.200,42,2.01,"RP                                                "
46902,06/14/2006,"730       ",6.19,0.36,0.200,48,2.11,"RP                                                "
46903,06/15/2006,"725       ",6.21,0.36,0.500,50,2.20,"RP                                                "
46904,06/16/2006,"915       ",6.04,0.35,0.200,47,2.45,"TL                                                "
46905,06/17/2006,"855       ",5.93,0.34,0.200,47,2.47,"TL                                                "
46906,06/18/2006,"920       ",5.95,0.39,0.300,45,2.30,"TL                                                "
46907,06/19/2006,"930       ",6.06,0.37,0.100,65,2.27,"RP                                                "
46908,06/20/2006,"1100      ",6.17,0.40,0.300,50,2.57,"RP                                                "
46909,06/21/2006,"800       ",6.09,0.38,0.200,52,2.36,"SVRH                                              "
46910,06/22/2006,"905       ",6.07,0.35,0.300,46,2.07,"RP                                                "
46911,06/23/2006,"915       ",6.06,0.33,0.200,38,1.99,"RP                                                "
46912,06/24/2006,"920       ",6.12,0.33,0.100,42,2.26,"RP                                                "
46913,06/25/2006,"805       ",6.08,0.38,0.200,58,2.37,"JF                                                "
46914,06/26/2006,"805       ",6.14,0.34,0.300,46,2.16,"RH/SV                                             "
46915,06/27/2006,"950       ",5.88,0.38,0.200,44,2.12,"RP                                                "
46916,06/28/2006,"937       ",5.94,0.30,0.400,52,2.39,"TL                                                "
46917,06/29/2006,"1025      ",5.80,0.33,0.200,48,2.10,"TL                                                "
46918,06/30/2006,"1000      ",5.90,0.40,0.300,57,2.38,"TL                                                "
46919,07/01/2006,"924       ",5.91,0.46,0.200,55,2.49,"TL                                                "
46920,07/02/2006,"925       ",5.90,0.37,0.200,52,2.15,"TL                                                "
46921,07/03/2006,"900       ",5.96,0.31,0.100,47,2.05,"RP                                                "
46922,07/04/2006,"825       ",5.83,0.27,0.100,40,1.98,"DMF                                               "
46923,07/05/2006,"1005      ",5.95,0.08,0.000,38,0.40,"RP                                                "
46924,07/06/2006,"945       ",5.96,0.10,0.100,32,0.37,"RP                                                "
46925,07/07/2006,"915       ",5.92,0.08,0.200,35,0.35,"TL                                                "
46926,07/08/2006,"841       ",5.80,0.10,0.200,37,0.55,"TL                                                "
46927,07/09/2006,"744       ",5.89,0.12,0.300,32,0.46,"TL                                                "
46928,07/10/2006,"905       ",6.10,0.47,0.200,44,3.27,"RP                                                "
46929,07/11/2006,"920       ",6.14,0.26,0.100,33,1.75,"RP                                                "
46930,07/12/2006,"915       ",6.06,0.17,0.200,30,0.80,"RP                                                "
46931,07/13/2006,"755       ",5.88,0.43,0.000,28,0.91,"RP                                                "
46932,07/14/2006,"800       ",5.93,0.22,0.100,31,0.86,"RH                                                "
46933,07/15/2006,"715       ",5.69,0.13,0.000,20,0.55,"DMF                                               "
46934,07/16/2006,"830       ",5.95,0.12,0.000,32,0.62,"RP                                                "
46935,07/17/2006,"940       ",5.95,0.24,0.200,26,0.72,"RP                                                "
46936,07/18/2006,"820       ",5.94,0.25,0.100,38,0.84,"DMF                                               "
46937,07/19/2006,"750       ",5.34,0.24,0.200,36,1.07,"SV/RH                                             "
46938,07/20/2006,"915       ",5.93,0.30,0.200,53,1.37,"RP                                                "
46939,07/21/2006,"930       ",5.97,0.27,0.200,62,1.56,"TL                                                "
46940,07/22/2006,"932       ",5.98,0.31,0.400,56,1.86,"TL                                                "
46941,07/23/2006,"930       ",6.03,0.33,0.200,56,1.99,"TL                                                "
46942,07/24/2006,"915       ",5.99,0.35,0.100,56,2.22,"RP                                                "
46943,07/25/2006,"1010      ",5.81,0.38,0.100,52,2.21,"RP                                                "
46944,07/26/2006,"925       ",6.08,0.39,0.300,60,2.43,"RP                                                "
46945,07/27/2006,"930       ",6.02,0.41,0.100,61,2.44,"RP                                                "
46946,07/28/2006,"1005      ",6.03,0.32,0.200,42,2.30,"TL                                                "
46947,07/29/2006,"902       ",5.76,0.36,0.100,50,2.37,"TL                                                "
46948,07/30/2006,"833       ",5.89,0.40,0.300,55,2.49,"TL                                                "
46949,07/31/2006,"835       ",6.00,0.34,0.200,56,2.65,"SV                                                "
46950,08/01/2006,"815       ",5.98,0.42,0.300,64,2.93,"SV                                                "
46951,08/02/2006,"810       ",5.95,0.34,0.300,74,2.95,"RH                                                "
46952,08/03/2006,"1017      ",5.72,0.37,0.200,66,2.52,"TL                                                "
46953,08/04/2006,"909       ",5.84,0.40,0.300,70,2.64,"TL                                                "
46954,08/05/2006,"835       ",5.75,0.39,0.200,68,2.59,"TL                                                "
46955,08/06/2006,"916       ",5.81,0.39,0.200,63,2.50,"TL                                                "
46956,08/07/2006,"905       ",5.95,0.45,0.400,73,2.76,"RP                                                "
46957,08/08/2006,"915       ",5.77,0.38,0.300,58,2.48,"RP                                                "
46958,08/09/2006,"850       ",5.88,0.40,0.300,55,2.61,"RP                                                "